Weather observations for the past three days for
Chicago / West Chicago, Dupage Airport
Imperial (Metric)
Date Time (cdt) Wind (mph) Vis. (mi.) Weather Sky Cond. Temperature (ºF) Relative Humidity Wind Chill (°F) Heat Index (°F) Pressure Precipitation (in)
Air Dwpt 6 hour altimeter (in) sea level (mb) 1 hr 3 hr 6 hr
Max. Min.
05 17:52 NE 14 G 22 10.00 A Few Clouds FEW022 FEW027 79 71.1 77% 82 29.97 1014.7
05 16:52 NE 10 10.00 Fair CLR 81 71.1 72% 85 29.97 1014.6
05 15:52 NE 6 10.00 Mostly Cloudy SCT022 BKN028 BKN039 80.1 72 76% 84 29.98 1014.6
05 12:52 NE 12 10.00 Mostly Cloudy BKN019 80.1 72 82 73 76% 84 29.99 1015.2
05 11:52 N 12 10.00 Mostly Cloudy BKN016 82 73.9 77% 88 29.98 1015.0
05 10:52 N 7 10.00 Mostly Cloudy BKN016 80.1 73 79% 84 29.99 1015.0
05 09:52 NE 13 10.00 Mostly Cloudy BKN008 79 73 82% 82 29.97 1014.5
05 08:52 NE 13 10.00 Overcast OVC007 73.9 72 94% 29.96 1014.4
05 07:52 NE 7 9.00 Mostly Cloudy BKN005 73.9 73 97% 29.95 1013.8
05 06:52 NE 7 10.00 Partly Cloudy SCT130 73 72 79 73 96% 29.93 1013.2
05 05:52 N 6 10.00 A Few Clouds FEW120 73.9 72 94% 29.91 1012.4
05 04:52 N 5 10.00 Mostly Cloudy BKN130 75.9 73.9 94% 75 29.91 1012.4
05 03:52 Calm 10.00 Mostly Cloudy BKN130 77 73.9 90% 78 29.91 1012.3
05 02:52 Calm 10.00 Fair CLR 75 73.9 96% 73 29.9 1012.2
05 01:52 Calm 10.00 Fair CLR 75.9 73 91% 76 29.92 1012.7
05 00:52 Calm 10.00 Fair CLR 79 75 87.1 79 88% 83 29.92 1012.9
04 23:52 W 3 10.00 Fair CLR 81 75.9 85% 87 29.92 1012.7
04 22:52 SW 7 10.00 Mostly Cloudy FEW120 SCT150 BKN220 82.9 75.9 79% 91 29.92 1012.6
04 21:52 Calm 10.00 Overcast BKN110 OVC140 82 75.9 82% 89 29.94 1013.4
04 20:52 Calm 10.00 Fair CLR 82 75.9 82% 89 29.92 1012.8
04 19:52 Calm 10.00 Fair CLR 84 75 74% 92 29.9 1012.0
04 18:52 SW 9 10.00 Fair CLR 87.1 75.9 91 84 70% 98 29.89 1011.8
04 17:52 SW 10 10.00 Fair CLR 90 75.9 63% 102 29.9 1012.1
04 16:52 W 9 10.00 Fair CLR 91 75 59% 102 29.91 1012.3
04 15:52 S 10 10.00 Fair CLR 90 75 62% 100 29.9 1011.9
04 14:52 S 9 10.00 Fair CLR 89.1 73.9 61% 98 29.93 1013.0
04 13:52 SE 12 10.00 Fair CLR 87.1 72 61% 94 29.96 1014.1
04 12:52 SE 13 G 22 10.00 Fair CLR 84 70 84 75.9 63% 88 29.98 1014.8
04 11:52 E 15 G 25 10.00 A Few Clouds FEW075 82 71.1 69% 86 30.02 1016.4
04 10:52 E 14 G 23 10.00 Mostly Cloudy SCT021 SCT080 BKN110 82.9 73.9 74% 89 30.01 1015.8
04 09:52 E 10 10.00 Fair CLR 82 73.9 77% 88 29.98 1015.0
04 08:52 E 3 10.00 A Few Clouds FEW110 82.9 72 70% 88 29.97 1014.3
04 07:52 NE 6 10.00 Partly Cloudy SCT110 79 72 79% 82 29.95 1013.9
04 06:52 W 6 10.00 Fair CLR 77 71.1 79 75 82% 79 29.92 1012.9
04 04:52 SW 12 10.00 Fair CLR 78.1 73 85% 81 29.9 1011.9
04 03:52 S 3 10.00 Mostly Cloudy BKN110 77 73.9 90% 78 29.93 1013.0
04 02:52 SW 3 10.00 Fair CLR 78.1 73.9 87% 81 29.92 1012.6
04 01:52 S 6 10.00 Fair CLR 75 73 94% 73 29.91 1012.5
04 00:52 Calm 10.00 Fair CLR 75.9 73.9 86 75.9 94% 75 29.94 1013.6
03 23:52 Calm 10.00 A Few Clouds FEW180 78.1 75 90% 81 29.94 1013.4
03 22:52 Calm 10.00 Fair CLR 80.1 75 85% 85 29.94 1013.6
03 21:52 S 5 10.00 Fair CLR 82 75 79% 89 29.95 1013.5
03 20:52 E 3 10.00 Fair CLR 81 73 77% 86 29.94 1013.4
03 19:52 Calm 10.00 Fair CLR 82.9 73.9 74% 89 29.9 1012.2
03 18:52 S 7 10.00 Fair CLR 86 73 91 82 65% 93 29.89 1011.8
03 17:52 S 5 10.00 Fair CLR 90 73.9 59% 99 29.91 1012.3
03 16:52 W 6 10.00 Fair CLR 91 71.1 52% 98 29.92 1012.4
03 15:52 S 7 10.00 Fair CLR 90 73.9 59% 99 29.92 1012.6
03 14:52 S 8 10.00 Mostly Cloudy BKN095 87.1 73 63% 95 29.94 1013.4
03 13:52 E 7 10.00 Fair CLR 84.9 72 65% 91 29.95 1013.8
03 12:52 NE 10 10.00 Partly Cloudy FEW075 SCT095 82 72 88 75.9 72% 87 29.98 1014.8
03 11:52 N 18 10.00 Fair CLR 82.9 71.1 67% 88 29.99 1015.3
03 10:52 NW 14 G 29 10.00 Mostly Cloudy FEW036 FEW044 BKN110 84 73 70% 90 29.98 1014.5
03 09:52 SW 7 10.00 Fair CLR 84.9 73.9 70% 92 29.95 1013.7
03 08:52 SW 10 10.00 Fair CLR 82.9 72 70% 88 29.94 1013.5
03 07:52 SW 8 10.00 Fair CLR 79 73 82% 82 29.95 1013.9
03 06:52 SW 6 10.00 Fair CLR 77 71.1 79 73.9 82% 79 29.95 1013.8
03 05:52 SW 9 10.00 Partly Cloudy SCT160 77 72 85% 78 29.95 1013.7
03 04:52 SW 8 10.00 A Few Clouds FEW160 73.9 72 94% 29.95 1013.7
03 03:52 S 5 10.00 Fair CLR 75.9 73 91% 76 29.94 1013.3
03 02:52 S 3 10.00 Fair CLR 75.9 73.9 94% 75 29.94 1013.3
03 01:52 Calm 10.00 Partly Cloudy SCT110 75.9 73.9 94% 75 29.94 1013.3
03 00:52 SW 5 10.00 Overcast FEW100 OVC160 79 75 88 77 88% 83 29.94 1013.5
02 23:52 SW 6 10.00 A Few Clouds FEW160 78.1 75 90% 81 29.94 1013.3
02 22:52 SW 6 10.00 Fair CLR 81 75 82% 87 29.94 1013.3
02 21:52 SW 6 10.00 Fair CLR 81 75 82% 87 29.93 1013.1
02 20:52 SW 8 10.00 Fair CLR 82.9 75 77% 90 29.92 1012.6
02 19:52 S 7 10.00 Fair CLR 84.9 75 72% 93 29.9 1012.2
02 18:52 SW 10 10.00 Fair CLR 88 75 93.9 88 66% 98 29.91 1012.4
Date Time (cdt) Wind (mph) Vis. (mi.) Weather Sky Cond. Air Dwpt Max. Min. Relative Humidity Wind Chill (°F) Heat Index (°F) altimeter (in) sea level (mb) 1 hr 3 hr 6 hr
6 hour
Temperature (ºF) Pressure Precipitation (in)